TimeCDT,TemperatureF,Dew PointF,Humidity,Sea Level PressureIn,VisibilityMPH,Wind Direction,Wind SpeedMPH,Gust SpeedMPH,PrecipitationIn,Events,Conditions,WindDirDegrees,DateUTC
12:55 AM,66.9,64.0,90,30.15,10.0,NNE,3.5,-,N/A,,Clear,20,2012-10-05 05:55:00
1:55 AM,66.4,64.0,92,30.15,10.0,Calm,Calm,-,N/A,,Clear,0,2012-10-05 06:55:00
2:10 AM,66.2,64.4,94,30.14,10.0,NW,3.5,-,N/A,,Partly Cloudy,320,2012-10-05 07:10:00
2:19 AM,66.2,64.4,94,30.14,10.0,NNW,3.5,-,N/A,,Mostly Cloudy,340,2012-10-05 07:19:00
2:42 AM,66.2,64.4,94,30.14,9.0,NNE,3.5,-,N/A,,Mostly Cloudy,30,2012-10-05 07:42:00
2:47 AM,66.2,64.4,94,30.14,2.5,Calm,Calm,-,N/A,,Mostly Cloudy,0,2012-10-05 07:47:00
2:48 AM,66.2,64.4,94,30.14,1.8,Calm,Calm,-,N/A,,Mostly Cloudy,0,2012-10-05 07:48:00
2:49 AM,66.2,64.4,94,30.13,1.5,Calm,Calm,-,N/A,,Mostly Cloudy,0,2012-10-05 07:49:00
2:50 AM,66.2,64.4,94,30.13,1.0,Calm,Calm,-,N/A,,Mist,0,2012-10-05 07:50:00
2:51 AM,66.2,64.4,94,30.13,0.8,Calm,Calm,-,N/A,,Mist,0,2012-10-05 07:51:00
2:53 AM,66.2,64.4,94,30.13,0.5,ENE,3.5,-,N/A,Fog,Fog,60,2012-10-05 07:53:00
2:55 AM,66.0,65.1,97,30.13,0.5,NE,3.5,-,N/A,Fog,Fog,50,2012-10-05 07:55:00
2:56 AM,66.2,64.4,94,30.13,0.2,ENE,3.5,-,N/A,Fog,Fog,60,2012-10-05 07:56:00
2:58 AM,66.2,64.4,94,30.13,0.2,NE,3.5,-,N/A,Fog,Fog,50,2012-10-05 07:58:00
3:05 AM,66.2,64.4,94,30.13,0.5,NNE,3.5,-,N/A,Fog,Fog,30,2012-10-05 08:05:00
3:09 AM,66.2,64.4,94,30.13,0.5,NNE,3.5,-,N/A,Fog,Fog,30,2012-10-05 08:09:00
3:10 AM,66.2,64.4,94,30.13,0.5,NNE,4.6,-,N/A,Fog,Fog,30,2012-10-05 08:10:00
3:12 AM,66.2,64.4,94,30.13,0.5,NNE,3.5,-,N/A,Fog,Fog,30,2012-10-05 08:12:00
3:14 AM,66.2,64.4,94,30.13,0.8,NNE,4.6,-,N/A,,Mist,20,2012-10-05 08:14:00
3:18 AM,66.2,64.4,94,30.13,1.0,NNE,4.6,-,N/A,,Mist,20,2012-10-05 08:18:00
3:21 AM,66.2,64.4,94,30.13,1.2,NNE,4.6,-,N/A,,Scattered Clouds,20,2012-10-05 08:21:00
3:24 AM,66.2,64.4,94,30.13,1.5,NNE,4.6,-,N/A,,Scattered Clouds,20,2012-10-05 08:24:00
3:30 AM,66.2,64.4,94,30.12,1.5,North,4.6,-,N/A,,Mostly Cloudy,10,2012-10-05 08:30:00
3:31 AM,66.2,64.4,94,30.13,1.2,North,4.6,-,N/A,,Mostly Cloudy,10,2012-10-05 08:31:00
3:33 AM,66.2,64.4,94,30.13,1.0,North,4.6,-,N/A,,Mist,10,2012-10-05 08:33:00
3:37 AM,66.2,64.4,94,30.13,0.8,North,4.6,-,N/A,,Mist,360,2012-10-05 08:37:00
3:44 AM,66.2,64.4,94,30.13,1.0,North,4.6,-,N/A,,Mist,10,2012-10-05 08:44:00
3:51 AM,66.2,64.4,94,30.12,1.2,North,4.6,-,N/A,,Mostly Cloudy,10,2012-10-05 08:51:00
3:54 AM,66.2,64.4,94,30.13,1.5,North,4.6,-,N/A,,Mostly Cloudy,10,2012-10-05 08:54:00
3:55 AM,65.8,65.1,98,30.13,1.8,North,4.6,-,N/A,,Mostly Cloudy,10,2012-10-05 08:55:00
3:57 AM,66.2,64.4,94,30.12,2.0,North,4.6,-,N/A,,Mostly Cloudy,10,2012-10-05 08:57:00
4:05 AM,66.2,64.4,94,30.12,1.8,NNE,3.5,-,N/A,,Mostly Cloudy,20,2012-10-05 09:05:00
4:10 AM,66.2,66.2,100,30.13,1.2,NNE,4.6,-,N/A,,Mostly Cloudy,30,2012-10-05 09:10:00
4:11 AM,66.2,66.2,100,30.13,1.0,NNE,4.6,-,N/A,,Mist,30,2012-10-05 09:11:00
4:14 AM,66.2,66.2,100,30.12,0.8,NNE,4.6,-,N/A,,Mist,30,2012-10-05 09:14:00
4:19 AM,66.2,66.2,100,30.12,0.5,NE,4.6,-,N/A,Fog,Fog,40,2012-10-05 09:19:00
4:23 AM,66.2,64.4,94,30.13,0.5,ENE,3.5,-,N/A,Fog,Fog,60,2012-10-05 09:23:00
4:26 AM,66.2,64.4,94,30.13,0.5,NE,3.5,-,N/A,Fog,Fog,50,2012-10-05 09:26:00
4:34 AM,64.4,64.4,100,30.13,0.5,NE,3.5,-,N/A,Fog,Fog,40,2012-10-05 09:34:00
4:37 AM,64.4,64.4,100,30.13,0.5,NNE,4.6,-,N/A,Fog,Fog,30,2012-10-05 09:37:00
4:39 AM,64.4,64.4,100,30.13,0.5,NNE,3.5,-,N/A,Fog,Fog,30,2012-10-05 09:39:00
4:41 AM,64.4,64.4,100,30.14,0.8,NNE,3.5,-,N/A,,Mist,30,2012-10-05 09:41:00
4:43 AM,64.4,64.4,100,30.14,0.8,NNE,3.5,-,N/A,,Mist,30,2012-10-05 09:43:00
4:48 AM,64.4,64.4,100,30.13,0.8,NNE,4.6,-,N/A,,Mist,20,2012-10-05 09:48:00
4:49 AM,64.4,64.4,100,30.13,0.5,NNE,3.5,-,N/A,Fog,Fog,20,2012-10-05 09:49:00
4:53 AM,64.4,64.4,100,30.13,0.5,NNE,4.6,-,N/A,Fog,Fog,20,2012-10-05 09:53:00
4:54 AM,64.4,64.4,100,30.13,0.5,NNE,4.6,-,N/A,Fog,Fog,20,2012-10-05 09:54:00
4:55 AM,65.1,64.8,99,30.13,0.2,NNE,4.6,-,N/A,Fog,Fog,20,2012-10-05 09:55:00
4:56 AM,64.4,64.4,100,30.13,0.2,North,4.6,-,N/A,Fog,Fog,10,2012-10-05 09:56:00
5:13 AM,66.2,64.4,94,30.14,0.5,North,4.6,-,N/A,Fog,Fog,360,2012-10-05 10:13:00
5:36 AM,66.2,64.4,94,30.14,0.5,North,4.6,-,N/A,Fog,Fog,10,2012-10-05 10:36:00
5:48 AM,66.2,64.4,94,30.14,0.5,North,3.5,-,N/A,Fog,Fog,10,2012-10-05 10:48:00
5:50 AM,66.2,64.4,94,30.14,0.8,NNE,4.6,-,N/A,,Mist,20,2012-10-05 10:50:00
5:55 AM,65.5,65.1,99,30.14,1.0,North,4.6,-,N/A,,Mist,10,2012-10-05 10:55:00
5:57 AM,66.2,64.4,94,30.14,1.2,North,5.8,-,N/A,,Overcast,10,2012-10-05 10:57:00
5:59 AM,66.2,64.4,94,30.14,1.5,North,4.6,-,N/A,,Overcast,10,2012-10-05 10:59:00
6:02 AM,66.2,66.2,100,30.14,2.0,NNE,4.6,-,N/A,,Overcast,20,2012-10-05 11:02:00
6:07 AM,66.2,66.2,100,30.14,3.0,NNE,5.8,-,N/A,,Overcast,20,2012-10-05 11:07:00
6:13 AM,66.2,66.2,100,30.14,1.0,North,4.6,-,N/A,,Overcast,10,2012-10-05 11:13:00
6:18 AM,66.2,66.2,100,30.14,1.0,North,4.6,-,N/A,,Overcast,10,2012-10-05 11:18:00
6:51 AM,66.2,66.2,100,30.14,0.5,ENE,3.5,-,N/A,Fog,Fog,70,2012-10-05 11:51:00
6:55 AM,65.5,65.3,99,30.14,0.5,NE,3.5,-,N/A,Fog,Fog,50,2012-10-05 11:55:00
7:02 AM,66.2,64.4,94,30.15,1.2,ENE,3.5,-,N/A,,Overcast,60,2012-10-05 12:02:00
7:05 AM,66.2,64.4,94,30.14,1.5,NE,3.5,-,N/A,,Overcast,50,2012-10-05 12:05:00
7:07 AM,66.2,64.4,94,30.14,2.0,NE,4.6,-,N/A,,Overcast,50,2012-10-05 12:07:00
7:08 AM,66.2,64.4,94,30.14,2.0,NE,4.6,-,N/A,,Overcast,50,2012-10-05 12:08:00
7:11 AM,66.2,64.4,94,30.14,3.0,NE,4.6,-,N/A,,Overcast,50,2012-10-05 12:11:00
7:12 AM,66.2,64.4,94,30.14,3.0,NE,5.8,-,N/A,,Overcast,50,2012-10-05 12:12:00
7:21 AM,66.2,66.2,100,30.15,6.0,ENE,5.8,-,N/A,,Overcast,60,2012-10-05 12:21:00
7:23 AM,66.2,66.2,100,30.15,8.0,ENE,5.8,-,N/A,,Overcast,70,2012-10-05 12:23:00
7:35 AM,66.2,66.2,100,30.14,9.0,NE,4.6,-,N/A,,Mostly Cloudy,50,2012-10-05 12:35:00
7:50 AM,66.2,66.2,100,30.14,10.0,NE,5.8,-,N/A,,Mostly Cloudy,50,2012-10-05 12:50:00
7:55 AM,65.8,65.5,99,30.14,10.0,NE,6.9,-,N/A,,Mostly Cloudy,50,2012-10-05 12:55:00
7:58 AM,66.2,66.2,100,30.15,10.0,NE,5.8,-,N/A,,Mostly Cloudy,50,2012-10-05 12:58:00
8:03 AM,66.2,66.2,100,30.15,10.0,NE,6.9,-,N/A,,Overcast,50,2012-10-05 13:03:00
8:16 AM,66.2,66.2,100,30.15,10.0,NNE,5.8,-,N/A,,Overcast,20,2012-10-05 13:16:00
8:35 AM,66.2,66.2,100,30.15,10.0,NE,5.8,-,N/A,,Overcast,40,2012-10-05 13:35:00
8:44 AM,66.2,66.2,100,30.15,10.0,NNE,8.1,-,N/A,,Overcast,30,2012-10-05 13:44:00
8:55 AM,67.3,66.7,98,30.15,10.0,NE,8.1,-,N/A,,Overcast,40,2012-10-05 13:55:00
9:42 AM,69.8,68.0,94,30.15,10.0,NE,9.2,-,N/A,,Overcast,40,2012-10-05 14:42:00
9:55 AM,69.4,67.6,94,30.15,10.0,NE,8.1,-,N/A,,Overcast,40,2012-10-05 14:55:00
10:00 AM,69.8,68.0,94,30.15,10.0,NE,8.1,-,N/A,,Overcast,40,2012-10-05 15:00:00
10:26 AM,69.8,68.0,94,30.16,10.0,East,4.6,-,N/A,,Overcast,100,2012-10-05 15:26:00
10:34 AM,69.8,68.0,94,30.16,8.0,Calm,Calm,-,N/A,,Light Drizzle,0,2012-10-05 15:34:00
10:43 AM,69.8,68.0,94,30.15,2.5,East,3.5,-,N/A,Rain,Light Rain,90,2012-10-05 15:43:00
10:46 AM,69.8,68.0,94,30.15,1.8,ENE,5.8,-,N/A,Rain,Heavy Rain,70,2012-10-05 15:46:00
10:47 AM,69.8,68.0,94,30.15,1.5,ENE,5.8,-,N/A,Rain,Heavy Rain,60,2012-10-05 15:47:00
10:55 AM,69.6,68.5,96,30.14,1.5,ENE,6.9,-,0.12,Rain,Rain,60,2012-10-05 15:55:00
10:57 AM,69.8,68.0,94,30.14,2.0,NE,6.9,-,N/A,Rain,Light Rain,50,2012-10-05 15:57:00
11:01 AM,69.8,69.8,100,30.15,3.0,NE,6.9,-,N/A,Rain,Light Rain,50,2012-10-05 16:01:00
11:06 AM,69.8,69.8,100,30.15,9.0,NE,8.1,-,N/A,Rain,Light Rain,50,2012-10-05 16:06:00
11:10 AM,69.8,69.8,100,30.15,10.0,NE,8.1,-,N/A,,Scattered Clouds,50,2012-10-05 16:10:00
11:32 AM,71.6,69.8,94,30.14,10.0,ENE,5.8,-,N/A,,Mostly Cloudy,60,2012-10-05 16:32:00
11:34 AM,71.6,69.8,94,30.14,10.0,ENE,4.6,-,N/A,,Light Drizzle,60,2012-10-05 16:34:00
11:42 AM,71.6,69.8,94,30.14,10.0,ENE,4.6,-,N/A,,Mostly Cloudy,60,2012-10-05 16:42:00
11:46 AM,71.6,69.8,94,30.14,10.0,NE,4.6,-,N/A,,Overcast,40,2012-10-05 16:46:00
11:55 AM,72.0,70.5,95,30.14,10.0,NE,6.9,-,0.01,,Overcast,50,2012-10-05 16:55:00
12:19 PM,73.4,71.6,94,30.13,10.0,ENE,5.8,-,N/A,,Overcast,60,2012-10-05 17:19:00
12:23 PM,75.2,71.6,89,30.12,10.0,NE,6.9,-,N/A,,Light Drizzle,50,2012-10-05 17:23:00
12:27 PM,75.2,71.6,89,30.12,10.0,NE,6.9,-,N/A,,Light Drizzle,40,2012-10-05 17:27:00
12:31 PM,75.2,71.6,89,30.12,10.0,NE,6.9,-,N/A,,Overcast,40,2012-10-05 17:31:00
12:48 PM,75.2,71.6,89,30.11,10.0,NE,4.6,-,N/A,,Overcast,50,2012-10-05 17:48:00
12:55 PM,75.2,71.4,88,30.11,10.0,NE,6.9,-,0.00,,Mostly Cloudy,50,2012-10-05 17:55:00
12:59 PM,75.2,71.6,89,30.11,10.0,Variable,4.6,-,N/A,,Mostly Cloudy,0,2012-10-05 17:59:00
1:33 PM,77.0,71.6,83,30.09,10.0,ENE,2.3,-,N/A,,Mostly Cloudy,70,2012-10-05 18:33:00
1:38 PM,77.0,71.6,83,30.09,10.0,Variable,5.8,-,N/A,,Mostly Cloudy,0,2012-10-05 18:38:00
1:55 PM,78.4,71.6,79,30.08,10.0,East,5.8,-,N/A,,Mostly Cloudy,100,2012-10-05 18:55:00
2:11 PM,78.8,71.6,78,30.07,10.0,East,5.8,-,N/A,,Scattered Clouds,80,2012-10-05 19:11:00
2:55 PM,79.7,71.6,76,30.04,10.0,ESE,3.5,-,N/A,,Scattered Clouds,120,2012-10-05 19:55:00
3:02 PM,80.6,71.6,74,30.04,10.0,East,5.8,-,N/A,,Mostly Cloudy,90,2012-10-05 20:02:00
3:14 PM,80.6,71.6,74,30.04,10.0,Variable,4.6,-,N/A,,Mostly Cloudy,0,2012-10-05 20:14:00
3:34 PM,78.8,71.6,78,30.03,10.0,East,6.9,-,N/A,,Mostly Cloudy,80,2012-10-05 20:34:00
3:39 PM,78.8,71.6,78,30.03,10.0,East,5.8,-,N/A,,Overcast,80,2012-10-05 20:39:00
3:55 PM,80.6,71.4,73,30.03,10.0,East,3.5,-,N/A,,Mostly Cloudy,80,2012-10-05 20:55:00
4:25 PM,80.6,71.6,74,30.01,10.0,East,6.9,-,N/A,,Mostly Cloudy,100,2012-10-05 21:25:00
4:34 PM,80.6,71.6,74,30.01,10.0,Variable,4.6,-,N/A,,Scattered Clouds,0,2012-10-05 21:34:00
4:36 PM,80.6,71.6,74,30.01,10.0,ESE,4.6,-,N/A,,Mostly Cloudy,120,2012-10-05 21:36:00
4:38 PM,80.6,71.6,74,30.01,10.0,East,4.6,-,N/A,,Scattered Clouds,100,2012-10-05 21:38:00
4:39 PM,80.6,71.6,74,30.01,10.0,East,5.8,-,N/A,,Mostly Cloudy,100,2012-10-05 21:39:00
4:44 PM,80.6,71.6,74,30.01,10.0,Variable,5.8,-,N/A,,Scattered Clouds,0,2012-10-05 21:44:00
4:46 PM,80.6,71.6,74,30.01,10.0,East,4.6,-,N/A,,Mostly Cloudy,90,2012-10-05 21:46:00
4:55 PM,79.9,71.1,74,30.01,10.0,East,5.8,-,N/A,,Scattered Clouds,90,2012-10-05 21:55:00
5:55 PM,78.3,71.6,80,30.01,10.0,ESE,3.5,-,N/A,,Partly Cloudy,110,2012-10-05 22:55:00
6:55 PM,75.4,72.0,89,30.01,10.0,ESE,3.5,-,N/A,,Overcast,110,2012-10-05 23:55:00
7:55 PM,73.6,71.2,92,30.02,10.0,ESE,3.5,-,N/A,,Clear,120,2012-10-06 00:55:00
8:55 PM,72.9,70.7,93,30.04,10.0,ESE,4.6,-,N/A,,Partly Cloudy,120,2012-10-06 01:55:00
9:55 PM,71.6,70.2,95,30.04,10.0,ESE,3.5,-,N/A,,Clear,110,2012-10-06 02:55:00
10:55 PM,70.9,69.6,96,30.04,10.0,Calm,Calm,-,N/A,,Scattered Clouds,0,2012-10-06 03:55:00
11:55 PM,70.7,69.4,96,30.03,10.0,Calm,Calm,-,N/A,,Scattered Clouds,0,2012-10-06 04:55:00